GW0881 Weather Reports


Display with metric or nautical units.
time (UTC)temp
F
wind
direction
speed
MPH
gust
MPH
rain 1hr
in
rain 24hr
in
rain mn
in
humidity
%
barometer
mb
20260831030722 77 203 1.0 1.0 0.00 0.00 0.00 84 1006.9
20260831030221 77 203 1.0 1.0 0.00 0.00 0.00 84 1006.9
20260831025720 77 214 2.0 2.0 0.00 0.00 0.00 83 1006.9
20260831025214 77 204 1.0 1.0 0.00 0.00 0.00 83 1006.8
20260831024711 77 196 0.0 1.0 0.00 0.00 0.00 83 1006.8
20260831024209 77 189 1.0 2.0 0.00 0.00 0.00 83 1006.6
20260831023708 77 194 1.0 1.0 0.00 0.00 0.00 82 1006.6
20260831023208 78 194 3.0 3.0 0.00 0.00 0.00 81 1006.7
20260831022703 78 190 1.0 2.0 0.00 0.00 0.00 81 1006.5
20260831022157 78 194 4.0 5.0 0.00 0.00 0.00 80 1006.8
20260831021656 78 202 1.0 2.0 0.00 0.00 0.00 79 1006.9
20260831021152 79 211 2.0 3.0 0.00 0.00 0.00 78 1007.0
20260831020648 79 195 1.0 2.0 0.00 0.00 0.00 77 1006.6
20260831020148 79 194 0.0 1.0 0.00 0.00 0.00 78 1006.7
20260831015644 79 203 0.0 1.0 0.00 0.00 0.00 77 1006.6
20260831015143 80 202 1.0 2.0 0.00 0.00 0.00 76 1006.6
20260831014638 80 207 4.0 5.0 0.00 0.00 0.00 76 1006.6
20260831014133 80 204 1.0 1.0 0.00 0.00 0.00 77 1006.6
20260831013630 80 203 2.0 2.0 0.00 0.00 0.00 76 1006.6
20260831013129 80 210 1.0 1.0 0.00 0.00 0.00 77 1006.4
20260831012624 80 201 1.0 1.0 0.00 0.00 0.00 77 1006.5
20260831012119 79 211 2.0 2.0 0.00 0.00 0.00 79 1006.6
20260831011619 79 194 0.0 1.0 0.00 0.00 0.00 82 1006.4
20260831011114 79 208 0.0 0.0 0.00 0.00 0.00 83 1006.5
20260831010610 79 207 1.0 1.0 0.00 0.00 0.00 83 1006.4
20260831010106 79 208 0.0 1.0 0.00 0.00 0.00 84 1006.0
20260831005605 79 208 0.0 0.0 0.00 0.00 0.00 84 1006.0
20260831005100 80 208 0.0 0.0 0.00 0.00 0.00 83 1006.3
20260831004556 80 207 0.0 1.0 0.00 0.00 0.00 83 1006.0
20260831004052 81 209 0.0 0.0 0.00 0.00 0.00 82 1006.0
20260831003548 81 209 0.0 0.0 0.00 0.00 0.00 81 1006.0
20260831003043 82 208 0.0 0.0 0.00 0.00 0.00 80 1006.0
20260831002541 82 206 0.0 1.0 0.00 0.00 0.00 79 1006.0
20260831002037 82 209 0.0 0.0 0.00 0.00 0.00 78 1006.2
20260831001532 82 200 0.0 1.0 0.00 0.00 0.00 78 1006.0
20260831001029 82 216 1.0 1.0 0.00 0.00 0.00 78 1006.4
20260831000525 83 206 0.0 0.0 0.00 0.00 0.00 77 1006.2
20260831000024 83 200 0.0 0.0 0.00 0.00 0.00 77 1006.2
20260830235518 83 193 0.0 1.0 0.00 0.00 0.00 76 1006.2
20260830235013 83 198 2.0 2.0 0.00 0.00 0.00 76 1006.0
20260830234508 83 208 0.0 0.0 0.00 0.00 0.00 76 1005.8
20260830234003 83 209 1.0 1.0 0.00 0.00 0.00 76 1005.9
20260830233459 83 177 1.0 1.0 0.00 0.00 0.00 76 1005.8
20260830232954 83 196 1.0 1.0 0.00 0.00 0.00 76 1006.0
20260830232450 83 207 0.0 0.0 0.00 0.00 0.00 76 1006.0
20260830231947 83 214 0.0 0.0 0.00 0.00 0.00 77 1006.0
20260830231442 83 195 1.0 1.0 0.00 0.00 0.00 76 1006.0
20260830230941 83 194 0.0 0.0 0.00 0.00 0.00 75 1006.0
20260830230437 83 172 1.0 2.0 0.00 0.00 0.00 75 1005.9
20260830225935 84 194 0.0 1.0 0.00 0.00 0.00 75 1005.9
20260830225431 84 206 1.0 1.0 0.00 0.00 0.00 75 1006.3
20260830224926 84 194 1.0 1.0 0.00 0.00 0.00 74 1006.0
20260830224424 84 195 0.0 1.0 0.00 0.00 0.00 74 1006.0
20260830223921 84 204 0.0 0.0 0.00 0.00 0.00 75 1006.0
20260830223418 84 204 0.0 1.0 0.00 0.00 0.00 75 1006.0
20260830222916 84 203 0.0 1.0 0.00 0.00 0.00 74 1006.0
20260830222412 84 184 2.0 2.0 0.00 0.00 0.00 73 1005.9
20260830221908 84 199 1.0 1.0 0.00 0.00 0.00 74 1006.0
20260830221404 85 181 1.0 1.0 0.00 0.00 0.00 72 1005.8
20260830220900 85 192 2.0 2.0 0.00 0.00 0.00 73 1006.0
20260830220359 84 173 1.0 1.0 0.00 0.00 0.00 73 1005.9
20260830215856 84 170 1.0 2.0 0.00 0.00 0.00 74 1006.2
20260830215356 84 197 1.0 1.0 0.00 0.00 0.00 74 1006.2
20260830214851 84 200 1.0 1.0 0.00 0.00 0.00 73 1006.5
20260830214346 84 184 1.0 1.0 0.00 0.00 0.00 74 1006.3
20260830213841 84 206 1.0 3.0 0.00 0.00 0.00 75 1006.4
20260830213336 84 166 1.0 2.0 0.00 0.00 0.00 74 1006.3
20260830212832 84 160 2.0 2.0 0.00 0.00 0.00 73 1006.3
20260830212328 84 69 4.0 5.0 0.00 0.00 0.00 74 1006.4
20260830211826 84 199 0.0 1.0 0.00 0.00 0.00 73 1006.7
20260830211321 84 198 1.0 1.0 0.00 0.00 0.00 74 1006.7
20260830210817 84 172 2.0 2.0 0.00 0.00 0.00 74 1006.7
20260830210315 83 195 0.0 1.0 0.00 0.00 0.00 75 1006.7
20260830205814 83 167 2.0 2.0 0.00 0.00 0.00 75 1006.7
20260830205308 83 211 2.0 2.0 0.00 0.00 0.00 75 1006.8
20260830204803 83 138 1.0 1.0 0.00 0.00 0.00 75 1006.9
20260830204302 83 199 2.0 2.0 0.00 0.00 0.00 75 1006.9
20260830203758 83 196 0.0 1.0 0.00 0.00 0.00 76 1006.9
20260830203254 82 193 1.0 2.0 0.00 0.00 0.00 77 1006.9
20260830202753 82 211 0.0 1.0 0.00 0.00 0.00 80 1007.1
20260830202249 82 211 0.0 1.0 0.00 0.00 0.00 78 1006.8
20260830201749 81 202 1.0 2.0 0.00 0.00 0.00 80 1006.9
20260830201243 81 193 0.0 1.0 0.00 0.00 0.00 79 1006.9
20260830200738 81 238 2.0 2.0 0.00 0.00 0.00 79 1006.9
20260830200238 81 343 3.0 5.0 0.00 0.00 0.00 79 1006.9
20260830195733 81 218 1.0 1.0 0.00 0.00 0.00 79 1006.9
20260830195231 80 200 2.0 2.0 0.00 0.00 0.00 79 1006.7
20260830194730 80 210 0.0 1.0 0.00 0.00 0.00 81 1006.9
20260830194225 81 142 1.0 2.0 0.00 0.00 0.00 80 1006.9
20260830193720 81 250 2.0 2.0 0.00 0.00 0.00 79 1007.0
20260830193214 81 181 0.0 1.0 0.00 0.00 0.00 78 1007.1
20260830192710 80 206 1.0 1.0 0.00 0.00 0.00 78 1006.9
20260830192204 81 245 1.0 1.0 0.00 0.00 0.00 79 1007.0
20260830191701 80 174 2.0 3.0 0.00 0.00 0.00 78 1007.5
20260830191155 80 196 1.0 1.0 0.00 0.00 0.00 79 1007.6
20260830190651 80 195 0.0 0.0 0.00 0.00 0.00 80 1007.6
20260830190145 79 193 1.0 1.0 0.00 0.00 0.00 81 1007.6
20260830185644 79 199 0.0 1.0 0.00 0.00 0.00 80 1007.7
20260830185140 80 284 2.0 2.0 0.00 0.00 0.00 80 1007.8
20260830184639 80 201 0.0 1.0 0.00 0.00 0.00 80 1008.0
20260830184133 79 210 0.0 0.0 0.00 0.00 0.00 82 1008.0
20260830183628 78 185 1.0 1.0 0.00 0.00 0.00 81 1007.9
20260830183124 78 204 0.0 0.0 0.00 0.00 0.00 81 1008.1
20260830182619 78 208 1.0 1.0 0.00 0.00 0.00 82 1008.2
20260830182115 78 199 1.0 1.0 0.00 0.00 0.00 81 1008.2
20260830181611 78 201 0.0 1.0 0.00 0.00 0.00 82 1008.1
20260830181110 77 207 1.0 1.0 0.00 0.00 0.00 84 1008.3
20260830180609 76 199 1.0 1.0 0.00 0.00 0.00 84 1008.1
20260830180109 76 198 1.0 1.0 0.00 0.00 0.00 85 1008.2
20260830175608 76 201 0.0 0.0 0.00 0.00 0.00 85 1008.3
20260830175104 75 187 1.0 1.0 0.00 0.00 0.00 85 1008.3
20260830174559 75 198 1.0 2.0 0.00 0.00 0.00 85 1008.4
20260830174054 76 198 1.0 2.0 0.00 0.00 0.00 85 1008.3
20260830173549 76 205 0.0 0.0 0.00 0.00 0.00 85 1008.5
20260830173044 75 208 0.0 0.0 0.00 0.00 0.00 86 1008.3
20260830172541 75 204 0.0 1.0 0.00 0.00 0.00 86 1008.4
20260830172037 75 207 0.0 0.0 0.00 0.00 0.00 86 1008.5
20260830171532 75 204 1.0 1.0 0.00 0.00 0.00 86 1008.3
20260830171026 75 205 0.0 0.0 0.00 0.00 0.00 87 1008.6
20260830170521 74 218 0.0 1.0 0.00 0.00 0.00 87 1008.5
20260830170020 74 202 0.0 1.0 0.00 0.00 0.00 87 1008.3
20260830165515 74 206 0.0 1.0 0.00 0.00 0.00 87 1008.4
20260830165011 74 190 0.0 1.0 0.00 0.00 0.00 87 1008.2
20260830164507 74 215 1.0 1.0 0.00 0.00 0.00 87 1008.5
20260830164003 74 234 2.0 3.0 0.00 0.00 0.00 87 1008.1
20260830163500 74 117 1.0 2.0 0.00 0.00 0.00 87 1008.2
20260830162958 74 193 1.0 2.0 0.00 0.00 0.00 87 1008.0
20260830162455 73 314 2.0 3.0 0.00 0.00 0.00 87 1007.9
20260830161954 73 110 1.0 1.0 0.00 0.00 0.00 89 1008.1
20260830161449 73 269 1.0 1.0 0.00 0.00 0.00 89 1008.1
20260830160944 72 165 1.0 1.0 0.00 0.00 0.00 89 1008.1
20260830160441 72 162 2.0 3.0 0.00 0.00 0.00 89 1008.0
20260830155935 72 145 1.0 1.0 0.00 0.00 0.00 89 1007.8
20260830155432 72 184 0.0 1.0 0.00 0.00 0.00 90 1008.1
20260830154926 72 36 1.0 1.0 0.00 0.00 0.00 90 1008.0
20260830154422 71 56 5.0 6.0 0.00 0.00 0.00 90 1007.9
20260830153919 71 212 1.0 1.0 0.00 0.00 0.00 90 1007.9
20260830153414 71 304 3.0 3.0 0.00 0.00 0.00 90 1008.1
20260830152913 71 258 1.0 1.0 0.00 0.00 0.00 90 1007.8
20260830152408 71 70 1.0 2.0 0.00 0.00 0.00 90 1008.1
20260830151902 71 250 1.0 1.0 0.00 0.00 0.00 91 1007.9
20260830151401 71 198 1.0 1.0 0.00 0.00 0.00 91 1008.1
20260830150856 71 204 0.0 0.0 0.00 0.00 0.00 91 1008.0
20260830150356 70 321 3.0 5.0 0.00 0.00 0.00 92 1008.1
20260830145845 70 250 1.0 1.0 0.00 0.00 0.00 92 1007.9
20260830145339 70 260 1.0 1.0 0.00 0.00 0.00 92 1007.6
20260830144835 70 214 1.0 1.0 0.00 0.00 0.00 92 1007.8
20260830144331 70 18 2.0 2.0 0.00 0.00 0.00 92 1007.8
20260830143826 70 39 2.0 2.0 0.00 0.00 0.00 92 1008.0
20260830143326 69 28 1.0 1.0 0.00 0.00 0.00 93 1008.3
20260830142820 69 237 3.0 5.0 0.00 0.00 0.00 92 1008.3
20260830142315 69 202 0.0 0.0 0.00 0.00 0.00 93 1008.1
20260830141811 69 25 1.0 2.0 0.00 0.00 0.00 93 1008.2
20260830141305 69 29 4.0 6.0 0.00 0.00 0.00 93 1008.1
20260830140800 68 42 1.0 2.0 0.00 0.00 0.00 94 1008.4
20260830140255 68 331 2.0 2.0 0.00 0.00 0.00 95 1008.3
20260830135750 68 209 0.0 0.0 0.00 0.00 0.00 95 1008.2
20260830135245 68 214 0.0 0.0 0.00 0.00 0.00 96 1008.0
20260830134741 67 191 0.0 0.0 0.00 0.00 0.00 96 1008.2
20260830134235 67 209 1.0 1.0 0.00 0.00 0.00 97 1008.3
20260830133731 67 219 1.0 1.0 0.00 0.00 0.00 97 1008.3
20260830133227 67 209 0.0 1.0 0.00 0.00 0.00 97 1008.1
20260830132722 67 75 2.0 2.0 0.00 0.00 0.00 97 1008.2
20260830132218 67 28 2.0 2.0 0.00 0.00 0.00 98 1008.2
20260830131717 66 175 1.0 1.0 0.00 0.00 0.00 98 1008.0
20260830131212 66 306 1.0 2.0 0.00 0.00 0.00 98 1008.1
20260830130707 66 146 1.0 1.0 0.00 0.00 0.00 98 1008.4
20260830130206 66 213 1.0 1.0 0.00 0.00 0.00 98 1008.2
20260830125706 66 216 0.0 1.0 0.00 0.00 0.00 98 1008.2
20260830125201 66 223 0.0 1.0 0.00 0.00 0.00 98 1007.9
20260830124659 66 243 0.0 1.0 0.00 0.00 0.00 98 1008.0
20260830124154 66 133 2.0 3.0 0.00 0.00 0.00 98 1007.8
20260830123651 66 36 2.0 3.0 0.00 0.00 0.00 98 1007.8
20260830123147 66 185 1.0 1.0 0.00 0.00 0.00 98 1007.8
20260830122644 66 138 1.0 1.0 0.00 0.00 0.00 98 1008.2
20260830122139 66 232 0.0 0.0 0.00 0.00 0.00 98 1008.4
20260830121635 66 234 0.0 1.0 0.00 0.00 0.00 99 1008.2
20260830121134 66 217 1.0 1.0 0.00 0.00 0.00 99 1008.2
20260830120629 66 188 0.0 0.0 0.00 0.00 0.00 98 1008.1
20260830120126 66 212 0.0 0.0 0.00 0.00 0.00 99 1008.0
20260830115622 66 208 0.0 0.0 0.00 0.00 0.00 98 1007.9
20260830115117 65 215 1.0 1.0 0.00 0.00 0.00 98 1008.0
20260830114614 65 238 1.0 1.0 0.00 0.00 0.00 98 1007.8
20260830114113 65 152 1.0 1.0 0.00 0.00 0.00 98 1007.6
20260830113609 65 259 1.0 1.0 0.00 0.00 0.00 98 1007.7
20260830113103 65 227 1.0 1.0 0.00 0.00 0.00 98 1007.2
20260830112600 65 36 1.0 1.0 0.00 0.00 0.00 98 1007.4
20260830112055 65 231 0.0 0.0 0.00 0.00 0.00 98 1007.7
20260830111545 65 208 0.0 0.0 0.00 0.00 0.00 98 1007.6
20260830111041 65 211 0.0 0.0 0.00 0.00 0.00 98 1007.8
20260830110541 65 222 0.0 0.0 0.00 0.00 0.00 98 1007.9
20260830110037 65 206 0.0 0.0 0.00 0.00 0.00 98 1007.8
20260830105531 65 211 0.0 0.0 0.00 0.00 0.00 98 1008.0
20260830105027 65 198 0.0 0.0 0.00 0.00 0.00 98 1008.1
20260830104523 65 228 0.0 0.0 0.00 0.00 0.00 98 1008.3
20260830104019 65 227 0.0 0.0 0.00 0.00 0.00 98 1007.9
20260830103514 65 227 0.0 0.0 0.00 0.00 0.00 98 1007.9
20260830103013 65 228 0.0 0.0 0.00 0.00 0.00 98 1008.1
20260830102508 65 227 0.0 0.0 0.00 0.00 0.00 98 1008.0
20260830102004 65 227 0.0 0.0 0.00 0.00 0.00 98 1008.0
20260830101459 65 227 0.0 0.0 0.00 0.00 0.00 98 1008.0
20260830100959 66 227 0.0 0.0 0.00 0.00 0.00 98 1007.8
20260830100458 66 227 0.0 0.0 0.00 0.00 0.00 98 1007.9
20260830095956 66 227 0.0 0.0 0.00 0.00 0.00 98 1008.0
20260830095453 66 227 0.0 0.0 0.00 0.00 0.00 98 1007.9
20260830094948 66 227 0.0 0.0 0.00 0.00 0.00 98 1007.9
20260830094444 66 227 0.0 0.0 0.00 0.00 0.00 98 1007.9
20260830093940 66 227 0.0 0.0 0.00 0.00 0.00 98 1007.7
20260830093435 66 227 0.0 0.0 0.00 0.00 0.00 98 1007.6
20260830092931 66 227 0.0 0.0 0.00 0.00 0.00 97 1007.4
20260830092426 66 214 0.0 0.0 0.00 0.00 0.00 97 1007.4
20260830091923 66 197 0.0 0.0 0.00 0.00 0.00 97 1007.5
20260830091423 66 223 0.0 0.0 0.00 0.00 0.00 97 1007.7
20260830090921 66 223 0.0 0.0 0.00 0.00 0.00 97 1007.7
20260830090417 66 219 0.0 0.0 0.00 0.00 0.00 97 1007.8
20260830085912 66 232 0.0 0.0 0.00 0.00 0.00 97 1007.7
20260830085407 66 232 0.0 0.0 0.00 0.00 0.00 97 1007.8
20260830084903 66 211 0.0 0.0 0.00 0.00 0.00 97 1007.6
20260830084358 66 233 0.0 0.0 0.00 0.00 0.00 97 1007.9
20260830083853 66 216 0.0 0.0 0.00 0.00 0.00 97 1007.9
20260830083349 66 215 0.0 0.0 0.00 0.00 0.00 97 1007.9
20260830082848 66 217 0.0 1.0 0.00 0.00 0.00 97 1007.7
20260830082343 66 228 0.0 0.0 0.00 0.00 0.00 97 1007.8
20260830081839 66 219 0.0 0.0 0.00 0.00 0.00 97 1007.7
20260830081338 66 223 0.0 1.0 0.00 0.00 0.00 97 1007.9
20260830080833 66 219 0.0 0.0 0.00 0.00 0.00 97 1008.1
20260830080330 66 224 0.0 0.0 0.00 0.00 0.00 96 1007.8
20260830075828 66 242 1.0 1.0 0.00 0.00 0.00 96 1007.9
20260830075324 66 230 0.0 0.0 0.00 0.00 0.00 96 1008.0
20260830074819 66 223 0.0 0.0 0.00 0.00 0.00 96 1007.8
20260830074315 66 213 0.0 0.0 0.00 0.00 0.00 96 1008.1
20260830073811 67 211 0.0 0.0 0.00 0.00 0.00 96 1008.3
20260830073306 67 223 0.0 0.0 0.00 0.00 0.00 96 1008.3
20260830072800 67 211 0.0 0.0 0.00 0.00 0.00 96 1008.4
20260830072256 67 212 0.0 0.0 0.00 0.00 0.00 96 1008.3
20260830071755 67 212 0.0 0.0 0.00 0.00 0.00 96 1008.5
20260830071250 67 222 0.0 0.0 0.00 0.00 0.00 96 1008.5
20260830070749 67 166 0.0 0.0 0.00 0.00 0.00 95 1008.3
20260830070244 67 223 0.0 0.0 0.00 0.00 0.00 95 1008.0
20260830065743 67 207 0.0 0.0 0.00 0.00 0.00 95 1008.1
20260830065238 67 219 0.0 0.0 0.00 0.00 0.00 95 1008.4
20260830064736 67 220 0.0 0.0 0.00 0.00 0.00 95 1008.4
20260830064232 67 209 0.0 0.0 0.00 0.00 0.00 95 1008.3
20260830063726 67 215 0.0 0.0 0.00 0.00 0.00 95 1008.4
20260830063225 67 220 0.0 0.0 0.00 0.00 0.00 95 1008.3
20260830062720 67 220 0.0 0.0 0.00 0.00 0.00 95 1008.2
20260830062215 67 204 0.0 0.0 0.00 0.00 0.00 95 1008.2
20260830061714 68 215 0.0 0.0 0.00 0.00 0.00 95 1008.1
20260830061210 68 209 0.0 0.0 0.00 0.00 0.00 94 1008.4
20260830060707 68 186 0.0 0.0 0.00 0.00 0.00 94 1008.5
20260830060203 68 219 0.0 0.0 0.00 0.00 0.00 94 1008.5
20260830055657 68 220 0.0 0.0 0.00 0.00 0.00 94 1008.6
20260830055155 68 214 0.0 0.0 0.00 0.00 0.00 94 1008.6
20260830054649 68 206 0.0 0.0 0.00 0.00 0.00 94 1008.5
20260830054144 68 215 0.0 0.0 0.00 0.00 0.00 94 1008.8
20260830053640 68 222 0.0 0.0 0.00 0.00 0.00 94 1008.7
20260830053139 68 215 0.0 0.0 0.00 0.00 0.00 94 1008.5
20260830052634 68 219 0.0 1.0 0.00 0.00 0.00 94 1008.6
20260830052130 68 225 0.0 0.0 0.00 0.00 0.00 94 1008.6
20260830051624 68 212 0.0 0.0 0.00 0.00 0.00 94 1008.5
20260830051121 68 211 0.0 0.0 0.00 0.00 0.00 93 1008.6
20260830050619 68 202 0.0 0.0 0.00 0.00 0.00 93 1008.7
20260830050115 68 191 0.0 0.0 0.00 0.34 0.34 93 1008.5
20260830045613 68 191 1.0 1.0 0.00 0.34 0.34 93 1008.8
20260830045108 68 220 0.0 0.0 0.00 0.34 0.34 93 1008.7
20260830044607 69 220 0.0 0.0 0.00 0.34 0.34 93 1009.0
20260830044102 69 216 0.0 0.0 0.00 0.34 0.34 93 1008.9
20260830043558 69 212 0.0 0.0 0.00 0.34 0.34 93 1008.8
20260830043057 69 216 0.0 0.0 0.00 0.34 0.34 92 1009.0
20260830042554 69 211 0.0 0.0 0.00 0.34 0.34 92 1008.9
20260830042050 69 212 0.0 0.0 0.00 0.34 0.34 92 1009.0
20260830041549 69 212 0.0 0.0 0.00 0.34 0.34 92 1009.0
20260830041048 69 220 0.0 0.0 0.00 0.34 0.34 92 1009.0
20260830040544 69 214 0.0 0.0 0.00 0.34 0.34 92 1008.9
20260830040040 69 211 0.0 0.0 0.00 0.34 0.34 92 1009.0
20260830035537 69 215 0.0 0.0 0.00 0.34 0.34 92 1009.1
20260830035033 69 221 0.0 0.0 0.00 0.34 0.34 92 1009.1
20260830034529 69 214 0.0 0.0 0.00 0.34 0.34 91 1009.0
20260830034027 69 232 0.0 1.0 0.00 0.34 0.34 91 1009.0
20260830033523 70 211 0.0 0.0 0.00 0.34 0.34 91 1009.1
20260830033018 70 213 0.0 0.0 0.00 0.34 0.34 91 1009.1
20260830032517 70 214 0.0 0.0 0.00 0.34 0.34 91 1009.3
20260830032013 70 211 0.0 0.0 0.00 0.34 0.34 91 1009.4
20260830031508 70 219 0.0 0.0 0.00 0.34 0.34 91 1009.0
20260830031003 70 220 0.0 0.0 0.00 0.34 0.34 90 1009.1